{"data":{"norad_id":45764,"intl_designator":"2020-038AL","name":"STARLINK-1502","alt_names":[],"object_type":"PAYLOAD","status":"ACTIVE","operator":null,"country":"US","launch_date":"2020-06-13","launch_site_code":"AFETR","launch_vehicle":null,"mission":null,"orbit_class":"UNKNOWN","rcs_meters":null,"size_class":null,"mass_kg":null,"dimensions":null,"purposes":["comms"],"wikipedia_slug":null,"has_3d_model":false,"image_url":null,"decayed_at":null,"tle_current":{"epoch":"2026-09-19T19:30:25.303104Z","epoch_age_seconds":81391,"freshness":"FRESH","line1":"1 45764U 20038AL  26262.81279286  .00069259  00000+0  42957-3 0  9990","line2":"2 45764  53.0395 336.7599 0002951 344.1750  15.9176 15.76410978346983","mean_motion":15.76410978,"eccentricity":0.0002951,"inclination_deg":53.0395,"raan_deg":336.7599,"arg_perigee_deg":344.175,"mean_anomaly_deg":15.9176,"bstar":0.00042957,"rev_number":34698,"period_min":91.346737627198,"perigee_km":338.6363697776,"apogee_km":342.60177961289,"semimajor_km":6718.7560746952,"source":"CELESTRAK","updated_at":"2026-09-20T09:00:38.457861Z"}}}